Regional Weather Roundup
Issued by NWS Portland, ME

Home | Current Version | Previous Version | Text Only | Print | Product List | Glossary On
Versions: 1 2 3 4 5 6 7 8 9 10 11 12 13 14 15 16 17 18 19 20 21 22 23 24 25 26 27 28 29 30 31 32 33 34 35 36 37 38 39 40 41 42 43 44 45 46 47 48 49 50
000
ASUS41 KGYX 301110
RWRGYX
WEATHER ROUNDUP FOR MAINE AND NEW HAMPSHIRE
NATIONAL WEATHER SERVICE GRAY ME
700 AM EDT WED JUL 30 2014

MEZ002-005-006-010-012-015-018-020-021-024-026-027-029-301200-
MAINE

CITY           SKY/WX    TMP DP  RH WIND       PRES   REMARKS
PORTLAND       CLOUDY    61  56  83 NE6       30.00R
SANFORD        CLOUDY    59  52  77 N5        30.00R
BAR HARBOR     MOSUNNY   61  61 100 N3        30.02R
WISCASSET      CLOUDY    61  59  93 NE3       30.01S
ROCKLAND       CLOUDY    61  61 100 NE7       30.00R
FRYEBURG       MOSUNNY   60  57  89 CALM      30.02R
LEWISTONAUBURN CLOUDY    61  54  77 NW3       30.01R
AUGUSTA        CLOUDY    60  56  86 N5        30.02R
WATERVILLE     CLOUDY    59  54  82 N9        29.98R
BANGOR         PTSUNNY   61  57  87 N3        30.02S
GREENVILLE       N/A     55  53  93 CALM      30.03R
MILLINOCKET    CLOUDY    54  51  90 CALM      30.05S
HOULTON        SUNNY     51  49  92 CALM      30.03R
PRESQUE ISLE   SUNNY     54  48  82 CALM      30.04R
FRENCHVILLE    FOG       52  52 100 CALM      30.02R VSB<1/4
CARIBOU        SUNNY     55  53  93 CALM      30.03R
$$

NHZ002-005-008-009-011-012-014-301200-
NEW HAMPSHIRE

CITY           SKY/WX    TMP DP  RH WIND       PRES   REMARKS
PORTSMOUTH     PTSUNNY   61  57  85 N3        29.99R
ROCHESTER      CLOUDY    59  55  87 N5        29.99R
NASHUA         CLOUDY    62  58  87 CALM      30.01R
MANCHESTER     CLOUDY    63  54  72 N6        29.99R
CONCORD        CLOUDY    58  55  90 CALM      30.01R
LACONIA          N/A     57  54  88 CALM      30.00S
PLYMOUTH       CLOUDY    53  52  95 CALM      30.02S
BERLIN         CLOUDY    52  51  97 CALM      30.05R
WHITEFIELD     CLOUDY    52  50  93 CALM      30.04R
JAFFREY        CLOUDY    56  54  93 CALM      30.02R
LEBANON        CLOUDY    56  53  90 N3        30.03R
MT WASHINGTON  FOG       41  39  93 SE3         N/A  VSB 1/2
$$

VTZ005-007-008-301200-
VERMONT

CITY           SKY/WX    TMP DP  RH WIND       PRES   REMARKS
ST JOHNSBURY     N/A     47  47 100 MISG      30.03S
MONTPELIER     FOG       50  50 100 CALM      30.07R VSB<1/4
BURLINGTON     PTSUNNY   54  51  90 E3        30.02R
$$

MAZ007-012-024-CTZ003-RIZ002-NYZ038-NYZ072-301200-
SOUTHERN NEW ENGLAND AND NY

CITY           SKY/WX    TMP DP  RH WIND       PRES   REMARKS
BOSTON         PTSUNNY   66  57  72 CALM      30.00R
WORCESTER      CLOUDY    60  54  80 W3        30.02R
NANTUCKET      MOSUNNY   62  60  93 CALM      30.00R
PROVIDENCE     MOSUNNY   62  56  80 W5        30.00R
HARTFORD       PTSUNNY   62  56  80 CALM      30.00R
ALBANY         PTSUNNY   61  55  81 CALM      30.02R
NEW YORK CITY  PTSUNNY   65  52  62 NE3       30.01R
$$

ANZ081-ANZ082-ANZ150-NHZ014-MEZ023>029-301200-
COASTAL MARINE OBSERVATIONS

STATION/POSITION TIME  TEMP    WIND        PRES    WAVE
                       AIR SEA DIR/SP/G            HT/PER
                 (UTC) (F)     (DEG/KT/KT) (MB)    (FT/S)
MATINICUS ROCK   1000          120/ 11/ 11 1015.1R
PORTLAND WX BUOY 1100   62 60   20/  6/  6 1015.6R   2/ 9
WELLS            1100   60 53   20/  4/  4 1014.7R
ISLE OF SHOALS   1000   59      10/  6/  7 1014.4R
JEFFREYS LEDGE   1000      64                N/A     4/ 8
CASHES LEDGE BUO 1100   66 66   90/  4/  6 1015.2R   4/ 8
$$

.............KEY..............
   WCI - WIND CHILL
   TC  - TEMPERATURE IN CELSIUS
   VSB - VISIBILITY IN MILES
   HX  - HEAT INDEX
   FAIR- INDICATES FEW OR NO CLOUDS BELOW 12,000 FT, WITH NO
         SIGNIFICANT WEATHER AND/OR OBSTRUCTIONS TO VISIBILITY.





USA.gov is the U.S. government's official web portal to all federal, state and local government web resources and services.